TimeCDT,TemperatureF,Dew PointF,Humidity,Sea Level PressureIn,VisibilityMPH,Wind Direction,Wind SpeedMPH,Gust SpeedMPH,PrecipitationIn,Events,Conditions,WindDirDegrees,DateUTC
12:15 AM,71.6,68.0,88,30.06,7.0,ESE,4.6,-,N/A,,Clear,110,2013-07-05 05:15:00
12:35 AM,71.1,68.0,90,30.06,7.0,East,3.5,-,N/A,,Clear,100,2013-07-05 05:35:00
12:55 AM,70.7,67.6,90,30.07,5.0,Calm,Calm,-,N/A,,Clear,0,2013-07-05 05:55:00
1:15 AM,70.2,67.5,91,30.06,7.0,Calm,Calm,-,N/A,,Clear,0,2013-07-05 06:15:00
1:35 AM,69.8,67.1,91,30.05,5.0,Calm,Calm,-,N/A,,Clear,0,2013-07-05 06:35:00
1:55 AM,69.4,66.9,92,30.06,7.0,Calm,Calm,-,N/A,,Clear,0,2013-07-05 06:55:00
2:15 AM,69.1,66.7,92,30.06,7.0,Calm,Calm,-,N/A,,Clear,0,2013-07-05 07:15:00
2:35 AM,68.2,65.8,92,30.06,4.0,Calm,Calm,-,N/A,,Clear,0,2013-07-05 07:35:00
2:55 AM,67.5,65.3,93,30.06,2.5,Calm,Calm,-,N/A,,Clear,0,2013-07-05 07:55:00
3:15 AM,67.8,65.7,93,30.06,3.0,Calm,Calm,-,N/A,,Clear,0,2013-07-05 08:15:00
3:35 AM,67.3,65.3,93,30.06,3.0,Calm,Calm,-,N/A,,Clear,0,2013-07-05 08:35:00
3:55 AM,67.1,65.1,93,30.05,2.0,Calm,Calm,-,N/A,,Clear,0,2013-07-05 08:55:00
4:15 AM,67.1,65.1,93,30.05,2.5,Calm,Calm,-,N/A,,Clear,0,2013-07-05 09:15:00
4:35 AM,66.6,64.6,93,30.06,2.0,Calm,Calm,-,N/A,,Clear,0,2013-07-05 09:35:00
4:55 AM,66.6,64.6,93,30.07,2.0,Calm,Calm,-,N/A,,Scattered Clouds,0,2013-07-05 09:55:00
5:15 AM,65.7,63.7,93,30.07,1.2,Calm,Calm,-,N/A,,Mist,0,2013-07-05 10:15:00
5:35 AM,65.7,63.9,94,30.07,0.8,Calm,Calm,-,N/A,,Mist,0,2013-07-05 10:35:00
5:55 AM,65.5,63.7,94,30.08,0.2,Calm,Calm,-,N/A,Fog,Fog,0,2013-07-05 10:55:00
6:15 AM,66.7,64.9,94,30.08,0.2,Calm,Calm,-,N/A,Fog,Fog,0,2013-07-05 11:15:00
6:35 AM,67.1,65.3,94,30.08,0.5,Calm,Calm,-,N/A,Fog,Fog,0,2013-07-05 11:35:00
6:55 AM,68.0,66.2,94,30.08,2.0,Calm,Calm,-,N/A,,Overcast,0,2013-07-05 11:55:00
7:15 AM,69.1,67.3,94,30.08,3.0,SE,4.6,-,N/A,,Overcast,140,2013-07-05 12:15:00
7:35 AM,69.3,67.3,93,30.09,4.0,SE,3.5,-,N/A,,Overcast,130,2013-07-05 12:35:00
7:55 AM,69.4,67.5,93,30.10,5.0,Calm,Calm,-,N/A,,Overcast,0,2013-07-05 12:55:00
8:15 AM,70.0,67.8,93,30.10,7.0,Calm,Calm,-,N/A,,Overcast,0,2013-07-05 13:15:00
8:35 AM,70.7,67.8,91,30.11,10.0,Calm,Calm,-,N/A,,Scattered Clouds,0,2013-07-05 13:35:00
8:55 AM,71.6,67.5,87,30.11,10.0,Calm,Calm,-,N/A,,Clear,0,2013-07-05 13:55:00
9:15 AM,73.0,66.9,81,30.11,10.0,Calm,Calm,-,N/A,,Clear,0,2013-07-05 14:15:00
9:35 AM,73.4,67.1,81,30.11,10.0,East,4.6,-,N/A,,Clear,80,2013-07-05 14:35:00
9:55 AM,74.3,67.5,79,30.11,10.0,East,4.6,-,N/A,,Clear,80,2013-07-05 14:55:00
10:15 AM,74.7,67.6,79,30.11,10.0,ESE,5.8,-,N/A,,Clear,120,2013-07-05 15:15:00
10:35 AM,75.7,67.5,75,30.11,10.0,ENE,4.6,-,N/A,,Clear,60,2013-07-05 15:35:00
10:55 AM,76.5,67.6,74,30.11,10.0,Calm,Calm,-,N/A,,Clear,0,2013-07-05 15:55:00
11:15 AM,76.3,67.8,75,30.11,10.0,Calm,Calm,-,N/A,,Clear,0,2013-07-05 16:15:00
11:35 AM,78.3,68.7,72,30.11,10.0,ENE,5.8,-,N/A,,Clear,60,2013-07-05 16:35:00
11:55 AM,78.1,68.5,72,30.11,10.0,NNE,3.5,-,N/A,,Clear,30,2013-07-05 16:55:00
12:15 PM,78.4,68.4,71,30.10,10.0,Calm,Calm,-,N/A,,Clear,0,2013-07-05 17:15:00
12:35 PM,79.0,68.0,69,30.10,10.0,East,4.6,-,N/A,,Clear,100,2013-07-05 17:35:00
12:55 PM,80.4,67.6,65,30.10,10.0,ENE,3.5,-,N/A,,Clear,70,2013-07-05 17:55:00
1:15 PM,80.6,68.5,67,30.10,10.0,ENE,6.9,-,N/A,,Clear,70,2013-07-05 18:15:00
1:35 PM,81.7,68.7,65,30.10,10.0,East,5.8,-,N/A,,Clear,90,2013-07-05 18:35:00
1:55 PM,82.2,67.8,62,30.10,10.0,East,3.5,-,N/A,,Clear,80,2013-07-05 18:55:00
2:15 PM,81.1,68.5,65,30.09,10.0,ESE,3.5,-,N/A,,Clear,110,2013-07-05 19:15:00
2:35 PM,82.6,69.4,64,30.08,10.0,East,6.9,-,N/A,,Clear,90,2013-07-05 19:35:00
2:55 PM,82.4,69.8,66,30.09,10.0,ESE,10.4,-,N/A,,Clear,120,2013-07-05 19:55:00
3:15 PM,82.0,68.4,63,30.08,10.0,East,5.8,-,N/A,,Clear,100,2013-07-05 20:15:00
3:35 PM,82.2,68.5,63,30.08,10.0,East,6.9,-,N/A,,Clear,90,2013-07-05 20:35:00
3:55 PM,82.2,68.7,64,30.08,10.0,ESE,8.1,-,N/A,,Clear,120,2013-07-05 20:55:00
4:15 PM,82.0,68.9,64,30.07,10.0,East,6.9,-,N/A,,Clear,100,2013-07-05 21:15:00
4:35 PM,82.8,68.9,63,30.07,10.0,SSE,6.9,-,N/A,,Clear,150,2013-07-05 21:35:00
4:55 PM,82.6,68.7,63,30.06,10.0,East,8.1,-,N/A,,Clear,100,2013-07-05 21:55:00
5:15 PM,82.4,68.0,62,30.06,10.0,SE,4.6,-,N/A,,Clear,130,2013-07-05 22:15:00
5:35 PM,82.4,68.0,62,30.05,10.0,ESE,6.9,-,N/A,,Clear,120,2013-07-05 22:35:00
5:55 PM,82.0,66.9,60,30.05,10.0,ESE,4.6,-,N/A,,Clear,110,2013-07-05 22:55:00
6:15 PM,81.5,67.3,62,30.04,10.0,East,4.6,-,N/A,,Clear,100,2013-07-05 23:15:00
6:35 PM,80.6,67.8,65,30.03,10.0,ESE,5.8,-,N/A,,Clear,120,2013-07-05 23:35:00
6:55 PM,79.7,67.3,66,30.04,10.0,SE,5.8,-,N/A,,Clear,130,2013-07-05 23:55:00
7:15 PM,79.3,67.8,68,30.04,10.0,ESE,4.6,-,N/A,,Clear,110,2013-07-06 00:15:00
7:35 PM,78.8,68.4,70,30.04,10.0,ESE,3.5,-,N/A,,Clear,120,2013-07-06 00:35:00
7:55 PM,78.4,68.9,72,30.05,10.0,Calm,Calm,-,N/A,,Clear,0,2013-07-06 00:55:00
8:15 PM,77.7,69.4,76,30.05,10.0,Calm,Calm,-,N/A,,Clear,0,2013-07-06 01:15:00
8:35 PM,76.1,70.5,83,30.05,10.0,Calm,Calm,-,N/A,,Clear,0,2013-07-06 01:35:00
8:55 PM,74.5,70.7,88,30.05,10.0,Calm,Calm,-,N/A,,Clear,0,2013-07-06 01:55:00
9:15 PM,73.9,70.5,89,30.05,10.0,Calm,Calm,-,N/A,,Clear,0,2013-07-06 02:15:00
9:35 PM,73.4,70.3,90,30.06,10.0,Calm,Calm,-,N/A,,Clear,0,2013-07-06 02:35:00
9:55 PM,73.4,70.7,91,30.06,7.0,Calm,Calm,-,N/A,,Clear,0,2013-07-06 02:55:00
10:15 PM,72.7,70.2,92,30.06,10.0,Calm,Calm,-,N/A,,Clear,0,2013-07-06 03:15:00
10:35 PM,72.9,70.2,91,30.06,10.0,East,4.6,-,N/A,,Clear,100,2013-07-06 03:35:00
10:55 PM,72.7,69.6,90,30.07,10.0,East,3.5,-,N/A,,Clear,100,2013-07-06 03:55:00
11:15 PM,72.7,69.4,90,30.06,10.0,ESE,3.5,-,N/A,,Clear,110,2013-07-06 04:15:00
11:35 PM,72.5,69.3,90,30.06,10.0,ESE,3.5,-,N/A,,Clear,110,2013-07-06 04:35:00
11:55 PM,72.5,69.3,90,30.05,10.0,Calm,Calm,-,N/A,,Clear,0,2013-07-06 04:55:00